sat.trackr.live / text

‹ back to catalog

STARLINK-5782

NORAD 56034 · 2023-042BA

PAYLOAD ACTIVE UNKNOWN

§ Identity

Operator
Country
US
Launch date
2023-03-24
Launch site
AFETR
Launch vehicle
Mass (kg)
RCS (m²)

Purposes: comms

External: N2YO · Heavens-Above · Gunter

§ Orbital elements

Epoch: 2026-09-20T08:26:29.989536Z

Period
94.27 min
Inclination
43.0033°
Eccentricity
0.0001799
Mean motion
15.27570386 rev/d
Perigee alt
481.8 km
Apogee alt
484.3 km
Semi-major
6,861.2 km
B*
4.5829e-6
RAAN
26.1168°
Arg perigee
267.8606°
Mean anomaly
92.2040°
Rev number
19,280

§ Raw data

STARLINK-57821 56034U 23042BA  26263.35173599 -.00000136  00000+0  45829-5 0  99932 56034  43.0033  26.1168 0001799 267.8606  92.2040 15.27570386192809

JSON: /api/v1/satellites/56034 · /tle

For live sub-satellite position, see the globe view (requires WebGL).

§ Visibility from observer

Set your observer location to see the next 7 days of passes ≥ 10°. The values pass through the URL so the page stays shareable.

No JS? Fill the form by hand. The geolocation button needs JavaScript.